Meridian NAS, MS

10:47 AM CDT on April 27, 2017 (GMT -0500)
Meridian Naval Air Station

Weather History for KNMM - October, 2011

Change the Weather History Date:

Tuesday, October 18, 2011

  Actual Average Record
Temperature  
Mean Temperature 68 °F -  
Max Temperature 82 °F 74 °F 91 °F (2016)
Min Temperature 52 °F 51 °F 34 °F (2001)
Cooling Degree Days 2    
Growing Degree Days 18 (Base 50)    
Moisture  
Dew Point 55 °F    
Average Humidity 72    
Maximum Humidity 94    
Minimum Humidity 46    
Precipitation  
Precipitation 0.00 in - - ()
Sea Level Pressure  
Sea Level Pressure 29.73 in    
Wind  
Wind Speed 4 mph (WNW)    
Max Wind Speed 21 mph    
Max Gust Speed 29 mph    
Visibility 7 miles    
Events Fog    
Averages and records for this station are not official NWS values.
T = Trace of Precipitation, MM = Missing Value Source: NWS Daily Summary

Daily Weather History Graph

Daily Weather History Graph

Search for Another Location

Airport or City:

Trip Planner

Search our weather history database for the weather conditions in past years. The results will help you decide how hot, cold, wet, or windy it might be!

Date:

Astronomy

Oct. 18, 2011 Rise Set
Actual Time 7:00 AM CDT 6:18 PM CDT
Civil Twilight 6:35 AM CDT 6:43 PM CDT
Nautical Twilight 6:06 AM CDT 7:11 PM CDT
Astronomical Twilight 5:38 AM CDT 7:40 PM CDT
Moon 11:10 PM CDT (10/18) 12:39 PM CDT (10/18)
Length of Visible Light 12h 07m
Length of Day
11h 17m
Waning Gibbous, 64% of the Moon is Illuminated
Oct 18
Waning Gibbous
Oct 19
Last Quarter
Oct 26
New
Nov 2
First Quarter
Nov 10
Full

Hourly Weather History & Observations

Time (CDT) Temp. Heat Index Dew Point Humidity Pressure Visibility Wind Dir Wind Speed Gust Speed Precip Events Conditions
12:56 AM - - - N/A% 29.80 in 10.0 mi North - - N/A   Clear
1:56 AM - - - N/A% 29.79 in 10.0 mi North - - N/A   Clear
2:56 AM - - - N/A% 29.77 in 10.0 mi North - - N/A   Clear
3:56 AM - - - N/A% 29.77 in - North - - N/A   Clear
4:56 AM - - - N/A% 29.76 in 3.0 mi North - - N/A   Clear
5:56 AM - - - N/A% 29.76 in 4.0 mi North - - N/A   Haze
6:05 AM 57.2 °F - 50.0 °F 77% 29.76 in 4.0 mi Calm Calm - N/A   Haze
6:56 AM 55.0 °F - 48.9 °F 80% 29.79 in 4.0 mi Calm Calm - N/A   Haze
7:14 AM 55.4 °F - 48.2 °F 77% 29.77 in 2.5 mi Calm Calm - N/A   Haze
7:17 AM 55.4 °F - 50.0 °F 82% 29.77 in 5.0 mi Calm Calm - N/A   Haze
7:26 AM 55.4 °F - 51.8 °F 88% 29.78 in 1.0 mi Calm Calm - N/A   Mostly Cloudy
7:35 AM 57.2 °F - 53.6 °F 88% 29.78 in 0.5 mi Calm Calm - N/A   Overcast
7:56 AM 57.9 °F - 54.0 °F 87% 29.81 in 0.2 mi Calm Calm - N/A Fog Fog
8:56 AM 64.9 °F - 62.1 °F 90% 29.80 in 0.2 mi Calm Calm - N/A Fog Fog
9:14 AM 64.4 °F - 62.6 °F 94% 29.77 in 1.0 mi Calm Calm - N/A   Overcast
9:56 AM 66.9 °F - 63.0 °F 87% 29.82 in 1.0 mi Calm Calm - N/A   Overcast
10:23 AM 71.6 °F - 66.2 °F 83% 29.77 in 3.0 mi Calm Calm - N/A   Mostly Cloudy
10:56 AM 73.0 °F - 64.0 °F 73% 29.78 in 3.0 mi Calm Calm - N/A   Mostly Cloudy
11:56 AM 77.0 °F - 63.0 °F 62% 29.71 in 10.0 mi Calm Calm - N/A   Mostly Cloudy
12:56 PM 80.1 °F 81.2 °F 62.1 °F 54% 29.67 in 10.0 mi Variable 3.5 mph - N/A   Scattered Clouds
1:56 PM 82.9 °F 83.2 °F 60.1 °F 46% 29.63 in 10.0 mi Variable 4.6 mph - N/A   Scattered Clouds
2:56 PM 81.0 °F 81.9 °F 62.1 °F 52% 29.62 in 10.0 mi SW 6.9 mph - N/A   Mostly Cloudy
3:56 PM 78.1 °F - 62.1 °F 58% 29.60 in 10.0 mi West 6.9 mph - N/A   Mostly Cloudy
4:56 PM 75.9 °F - 61.0 °F 60% 29.61 in 10.0 mi WNW 8.1 mph - N/A   Mostly Cloudy
5:56 PM 73.0 °F - 60.1 °F 64% 29.62 in 10.0 mi WNW 9.2 mph - N/A   Overcast
6:12 PM 73.4 °F - 60.8 °F 65% 29.63 in 10.0 mi WNW 10.4 mph - N/A   Overcast
6:19 PM 71.6 °F - 59.0 °F 64% 29.63 in 10.0 mi NW 16.1 mph - N/A   Overcast
6:26 PM 69.8 °F - 59.0 °F 68% 29.64 in 10.0 mi WNW 16.1 mph 23.0 mph N/A   Overcast
6:56 PM 64.0 °F - 53.1 °F 67% 29.71 in 10.0 mi WNW 17.3 mph 25.3 mph N/A   Overcast
7:26 PM 60.8 °F - 48.2 °F 63% 29.70 in 10.0 mi WNW 13.8 mph - N/A   Overcast
7:56 PM 57.9 °F - 46.9 °F 67% 29.76 in 10.0 mi NW 17.3 mph 24.2 mph N/A   Overcast
8:03 PM 57.2 °F - 46.4 °F 67% 29.73 in 10.0 mi WNW 15.0 mph 25.3 mph N/A   Overcast
8:51 PM 55.4 °F - 46.4 °F 72% 29.74 in 10.0 mi NW 13.8 mph 23.0 mph N/A   Overcast
8:56 PM 55.0 °F - 46.9 °F 74% 29.78 in 10.0 mi WNW 20.7 mph 28.8 mph N/A   Overcast
9:56 PM 53.1 °F - 44.1 °F 71% 29.79 in 10.0 mi NW 16.1 mph 24.2 mph N/A   Overcast
10:56 PM 52.0 °F - 43.0 °F 71% 29.79 in 10.0 mi NW 15.0 mph 23.0 mph N/A   Overcast
11:56 PM - - - N/A% 29.76 in 10.0 mi North - - N/A   Overcast